www.pogodaiklimat.ru

Погода и климат >> Архив погоды >> Иран >> Семнан


ПОГОДА в Семнане

  • Прогноз погоды в Семнане
  • Монитор погоды в Семнане

АРХИВ ПОГОДЫ в Семнане

Время (UTC), дата Ветер
(напр.,м/с)
 
Видим.   Явления Облачность Т
(С)
Тd
(С)
f
(%)
Тe
(С)
Тes
(С)
Комфортность P
(гПа)
Po
(гПа)
Тmin
(С)
Tmax
(С)
R
(мм)
R24
(мм)
S
(см)
21 9.01 штиль 0 12 км ясно +4.0 -3.6 58 +4 +4 887.2
00 10.01 ЮЗ 2 12 км ясно +1.8 -4.1 65 -1 -1 1014.7 886.1
03 10.01 штиль 0 12 км ясно +1.2 -4.3 67 +1 +1 1015.4 886.1 +0.6
06 10.01 Ю 2 15 км 1/1 900 м
[Cu hum]
+5.0 -2.9 57 +3 +6 1018.8 889.0
09 10.01 СЗ 4 18 км 3/3 900 м
[Cu hum]
+9.6 -6.9 31 +8 +11 1018.3 889.3
12 10.01 С 7 20 км 5/5 1050 м
[Sc diur, vesp]
+8.2 -7.0 33 +5 +5 1020.2 890.2
15 10.01 штиль 0 15 км 3/3 1200 м
[Sc diur, vesp]
+6.2 -5.5 43 +6 +6 1022.7 891.9 +10.0
18 10.01 штиль 0 15 км ясно +4.0 -7.5 43 +4 +4 1024.1 893.4
21 10.01 штиль 0 15 км ясно +0.8 -4.9 66 0 0 893.7
00 11.01 штиль 0 15 км ясно -0.4 -5.2 70 -1 -1 1024.9 893.9
03 11.01 штиль 0 15 км 3/1 1200 м
[Sc Ci fib]
-1.2 -5.0 75 -2 -2 1026.6 894.8 -1.4
06 11.01 штиль 0 15 км ясно +4.6 -3.5 56 +4 +9 1027.0 895.9
09 11.01 штиль 0 15 км 4/0
[Ci fib]
+5.8 -3.9 50 +5 +14 опасность
простуды
1026.5 895.0
12 11.01 ЮЗ 1 15 км 5/0
[Ci]
+6.8 -4.6 44 +7 +8 1025.9 894.4
15 11.01 Ю 1 15 км ясно +4.6 -5.0 50 +4 +4 1026.9 894.7 +7.8
18 11.01 СВ 1 15 км ясно +1.2 -5.0 63 -0 -0 1027.4 895.6
21 11.01 С 2 15 км ясно +0.2 -5.1 68 -3 -3 895.1
00 12.01 С 1 15 км ясно -0.4 -5.9 66 -2 -2 1026.6 895.0
03 12.01 СЗ 1 15 км ясно -0.8 -6.5 65 -2 -2 1026.7 894.6 -2.4
06 12.01 штиль 0 12 км 4/0
[Ci sp]
+4.0 -7.5 43 +4 +8 1027.3 895.4
09 12.01 З 2 12 км 6/1 750 м
[Cu hum Cs]
+6.0 -8.5 34 +4 +10 1026.1 894.5
12 12.01 штиль 0 12 км ясно +7.0 -7.5 35 +7 +9 1024.2 893.0
15 12.01 СЗ 1 12 км ясно +3.5 -7.0 46 +3 +3 1024.2 892.1 +7.4
18 12.01 С 1 15 км ясно +1.8 -5.5 58 +1 +1 1023.1 891.9
21 12.01 С 1 15 км ясно -0.4 -4.6 73 -2 -2 891.7
00 13.01 С 1 15 км ясно -0.6 -6.2 66 -2 -2 1022.8 891.7
03 13.01 СЗ 1 15 км ясно -1.0 -6.8 65 -3 -3 1023.2 891.2 -1.2
06 13.01 штиль 0 15 км 6/0
[Cs]
+4.2 -7.1 44 +4 +8 1023.6 892.3
09 13.01 Ю 1 15 км 9/1 1050 м
[Sc Cs]
+5.8 -7.8 37 +6 +11 1022.2 890.9
12 13.01 ЮВ 1 15 км 10/4 1050 м
[Sc Ac As]
+6.4 -8.6 33 +6 +7 1020.1 889.2
15 13.01 штиль 0 6000 м слаб. ливневой дождь 10/6 900 м
[Cb calv As op]
+5.8 -5.3 45 +6 +6 1021.2 890.0 +7.4
18 13.01 штиль 0 12 км {ливн. осадки, дождь} 8/3 1050 м
[Sc Ac As]
+5.2 -3.3 54 +5 +5 1018.2 888.4 0.2
21 13.01 ЮВ 3 12 км 8/3 1050 м
[Sc Ac As]
+4.2 -3.4 58 +1 +1 1017.7 888.1
00 14.01 штиль 0 12 км 8/3 1200 м
[Sc Ac As]
+4.4 -2.4 61 +4 +4 1018.1 888.6
03 14.01 штиль 0 7000 м слаб. дождь 10/6 750 м
[Sc As op]
+2.8 +0.8 87 +2 +2 1016.9 887.1 +2.6
06 14.01 З 1 10 км {дождь} 10/5 900 м
[Sc As op]
+4.4 +1.0 79 +3 +4 1016.6 887.1 3
09 14.01 штиль 0 10 км {дождь} 10/3 1200 м
[Sc As op]
+6.0 +0.8 69 +5 +7 1015.7 886.4
12 14.01 СВ 1 10 км в посл. час дождь 9/1 1050 м
[Sc Ac As]
+6.6 +1.0 67 +6 +6 1013.5 884.8 0.2
15 14.01 штиль 0 10 км {дождь} 6/3 1050 м
[Sc Ac As]
+5.8 +2.6 80 +5 +5 1014.4 885.1 +6.6
18 14.01 штиль 0 12 км {дождь} 6/3 1050 м
[Sc Ac As]
+5.0 +2.7 85 +4 +4 1014.6 885.4 0.3
21 14.01 ЮВ 3 10 км 8/3 1050 м
[Sc Ac As]
+3.4 +1.0 84 -1 -1 1016.0 886.6
00 15.01 штиль 0 12 км 8/3 1200 м
[Sc Ac As]
+2.2 +0.7 90 +1 +1 1016.6 887.0
03 15.01 штиль 0 12 км 8/3 1200 м
[Sc Ac As]
+2.2 +0.7 90 +1 +1 1016.6 887.0
06 15.01 СВ 2 4000 м ясно +4.4 +2.6 88 +2 +5 1018.4 888.7
09 15.01 ЮЗ 1 4000 м мгла 1/1 900 м
[Sc]
+8.2 +4.8 79 +8 +15 1017.4 888.3
12 15.01 В 3 10 км ясно +11.0 +6.2 72 +9 +10 1017.2 888.6
15 15.01 С 2 10 км ясно +7.8 +4.8 81 +6 +6 1018.5 888.9 +11.0
18 15.01 С 2 10 км ясно +5.2 +2.9 85 +3 +3 1019.5 889.7
21 15.01 С 1 10 км ясно +3.6 +0.7 81 +2 +2 889.6
00 16.01 СЗ 1 10 км ясно +2.0 -0.6 83 0 0 1018.5 889.5
03 16.01 СЗ 1 10 км ясно +2.2 -0.9 80 +1 +1 1019.5 889.7 0.0
06 16.01 штиль 0 10 км ясно +7.6 -1.9 51 +7 +12 1019.7 890.4
09 16.01 Ю 2 12 км ясно +11.4 -0.1 45 +11 +17 1017.3 888.8
12 16.01 ЮЗ 4 15 км ясно +13.2 -0.5 39 +12 +13 1016.6 888.3
15 16.01 Ю 2 12 км 5/4 1200 м
[Sc Ci fib]
+9.4 +1.8 59 +8 +8 1016.7 887.6 +13.6
18 16.01 СЗ 3 12 км 8/3 1050 м
[Sc Ac As]
+8.2 +1.3 62 +6 +6 1015.4 887.4

 

Местоположение метеостанции Семнан (Иран): широта 35.55 долгота 53.38 высота над уровнем моря 1131 м.

В архиве по умолчанию представлена погода в Семнане за последнюю неделю. Архивные данные за месяц целиком и за предыдущие месяцы, начиная с января 2011 года, Вы можете получить, выбрав интересующий диапазон дат из раскрывающегося списка и нажав кнопку "Ввод!".


*Определитесь, кто Вы:
робот инопланетянин человек

Внимание! Время в таблицах - всемирное. Для получения местного времени необходимо прибавить поправку, которая равна 3.5 ч.

Смотрите также архив погоды в соседних городах и на ближайших метеорологических станциях:

Погода в Эскандар Кола (Иран) (112 км)
Погода в Бабольсере (Иран) (146 км)
Погода в Горгане (Иран) (165 км)
Погода в Шахруде (Иран) (171 км)
Погода в Тегеране (Иран) (187 км)
Погода в Ноушехре (Иран) (209 км)
Погода в Эсенгулы (Балканский велаят, Туркменистан) (220 км)
Погода в Кашане (Иран) (248 км)
Погода в Хоре (Иран) (251 км)
Погода в Гызылетреке (Балканский велаят, Туркменистан) (262 км)

Пояснения к столбцам:

Ветер - указаны скорость ветра в м/с - средняя за 10 мин, порывы в срок и между сроками (в фигурных скобках) и направление, откуда дует ветер: С - северный, СВ - северо-восточный, В - восточный, ЮВ - юго-восточный, Ю - южный, ЮЗ - юго-западный, З - западный, СЗ - северо-западный.
Видимость - горизонтальная дальность видимости в метрах или километрах. При видимости от 1 до 10 км при отсутствии осадков обычно наблюдается дымка, при ухудшении видимости до 1 км и менее - туман. В сухую погоду видимость может ухудшаться дымом, пылью или мглою.
Явления - указаны атмосферные явления, наблюдавшиеся в срок или в последний час перед сроком; фигурными скобками обозначены явления, наблюдавшиеся между сроками (за 1-3 часа до срока); квадратными скобками обозначены град или гололедные отложения с указанием их диаметра в мм.
Облачность - указаны через наклонную черту общая и нижняя облачность в баллах и высота нижней границы облаков в метрах; квадратными скобками обозначены формы облаков: Ci - перистые, Cs - перисто-слоистые, Cc - перисто-кучевые, Ac - высококучевые, As - высокослоистые, Sc - слоисто-кучевые, Ns - слоисто-дождевые, Cu - кучевые, Cb - кучево-дождевые. Подробнее классификацию облаков см. в Атласе облаков (PDF).
T - Температура воздуха - температура, измеренная на высоте 2 м над землей.
Td - Температура точки росы - температура, при понижении до которой содержащийся в воздухе водяной пар достигнет насыщения.
f - Относительная влажность воздуха - влажноcть воздуха, измеренная на высоте 2 м над землей.
Te - Эффективная температура - температура, которую ощущает одетый по сезону человек в тени. Характеристика душности погоды. При расчете учитывается влияние влажности воздуха и скорости ветра на теплоощущения человека.
Tes - Эффективная температура на солнце - температура, которую ощущает человек, с поправкой на солнечный нагрев. Характеристика знойности погоды. Зависит от высоты солнца над горизонтом, облачности и скорости ветра. Ночью, в пасмурную погоду, а также при ветре 12 м/с и более поправка равна нулю.
P - Атмосферное давление - приведенное к уровню моря атмосферное давление.
Po - Атмосферное давление - измеренное на уровне метеостанции атмосферное давление.
Tmin - Минимальная температура - минимум температуры воздуха на высоте 2 м над землей.
Tmax - Максимальная температура - максимум температуры воздуха на высоте 2 м над землей.
R - Количество осадков - Количество выпавших осадков за период времени, мм. При наведении курсора мыши на число - период времени, за который выпало указанное количество осадков.
R24 - Количество осадков - Количество выпавших осадков за 24 часа, мм.
S - Снежный покров - Высота снежного покрова, см. При наведении курсора мыши на число - состояние снежного покрова и степень покрытия местности в баллах.